Overcast with light rain
Overcast with light rain
Overcast with light rain
Overcast with light rain
Overcast
Overcast with light rain
Overcast
(°C)
(°C)
NE
NE
NE
NE
NE
NNE
NNE
(km/h)
12-26
12-25
12-25
11-24
10-22
9-21
8-21
(mm)
0.6
0.3
0.2
0.1
0
0.1
0
(%)
25
25
25
25
0
25
0

Sun elevation

/ 13.1°
sun-icon
UV 4
04:19
21:23
Last quarter moon (267°)
02:05
11:25

METAR for 55.31°N 61.5°E (USCC)

Time Conditions Temperature/
Dewpoint
Wind Visibility Weather Clouds Pressure Change Raw
IFR 5°C / 5°C 30º 6kt 2300m Mist Broken Clouds 500ft 1016 No Significant change. Runway 09: Wet or puddles, 51-100% contamination with <1mm, friction coefficient 0.45. USCC 300100Z 03003MPS 2300 BR BKN005CB 05/05 Q1016 R09/290045 NOSIG RMK QFE741
IFR 5°C / 5°C 30º 6kt 4200m Mist Broken Clouds 700ft 1016 No Significant change. Runway 09: Wet or puddles, 51-100% contamination with <1mm, friction coefficient 0.45. USCC 300030Z 03003MPS 4200 BR BKN007CB 05/05 Q1016 R09/290045 NOSIG RMK QFE741
IFR 5°C / 5°C 40º 6kt 9700m - Broken Clouds 700ft 1015 No Significant change. Runway 09: Wet or puddles, 51-100% contamination with <1mm, friction coefficient 0.45. USCC 300000Z 04003MPS 9999 BKN007CB 05/05 Q1015 R09/290045 NOSIG RMK QFE741
MVFR 5°C / 5°C 50º 6kt 9700m Light Showers Rain 3.00mm precipitation Scattered Clouds 500ft
Broken Clouds 1700ft
1015 No Significant change. Runway 09: Wet or puddles, 51-100% contamination with <1mm, friction coefficient 0.45. USCC 292330Z 05003MPS 9999 -SHRA SCT005 BKN017CB 05/05 Q1015 R09/290045 NOSIG RMK QFE741
MVFR 5°C / 5°C 70º 6kt 5000m Light Showers Rain Mist 3.00mm precipitation Scattered Clouds 400ft
Broken Clouds 1700ft
1015 No Significant change. Runway 09: Wet or puddles, 51-100% contamination with <1mm, friction coefficient 0.45. USCC 292300Z 07003MPS 5000 -SHRA BR SCT004 BKN017CB 05/05 Q1015 R09/290045 NOSIG RMK QBB120 QFE740
IFR 5°C / 5°C 50º 8kt 4400m Light Showers Rain Mist 3.00mm precipitation Scattered Clouds 400ft
Broken Clouds 1700ft
1015 No Significant change. Runway 09: Wet or puddles, 51-100% contamination with <1mm, friction coefficient 0.45. USCC 292230Z 05004MPS 4400 -SHRA BR SCT004 BKN017CB 05/05 Q1015 R09/290045 NOSIG RMK QBB120 QFE740
IFR 5°C / 5°C 70º 6kt 3100m Light Showers Rain Mist 3.00mm precipitation Scattered Clouds 300ft
Broken Clouds 1600ft
1014 No Significant change. Runway 09: Wet or puddles, 51-100% contamination with <1mm, friction coefficient 0.45. USCC 292200Z 07003MPS 3100 -SHRA BR SCT003 BKN016CB 05/05 Q1014 R09/290045 NOSIG RMK QBB090 QFE740
IFR 5°C / 5°C 60º 6kt 3800m Light Showers Rain Mist 3.00mm precipitation Scattered Clouds 400ft
Broken Clouds 1600ft
1014 No Significant change. Runway 09: Wet or puddles, 51-100% contamination with <1mm, friction coefficient 0.45. USCC 292130Z 06003MPS 3800 -SHRA BR SCT004 BKN016CB 05/05 Q1014 R09/290045 NOSIG RMK QBB120 QFE740
MVFR 5°C / 5°C 60º 6kt 5000m Light Showers Rain 3.00mm precipitation Scattered Clouds 300ft
Broken Clouds 1600ft
1015 No Significant change. Runway 09: Wet or puddles, 51-100% contamination with <1mm, friction coefficient 0.45. USCC 292100Z 06003MPS 5000 -SHRA SCT003 BKN016CB 05/05 Q1015 R09/290045 NOSIG RMK QBB090 QFE740
MVFR 5°C / 5°C 50º 6kt 5000m Light Showers Rain 3.00mm precipitation Scattered Clouds 400ft
Broken Clouds 1600ft
1015 No Significant change. Runway 09: Wet or puddles, 51-100% contamination with <1mm, friction coefficient 0.45. USCC 292030Z 05003MPS 5000 -SHRA SCT004 BKN016CB 05/05 Q1015 R09/290045 NOSIG RMK QBB120 QFE740
MVFR 6°C / 5°C 80º variable 040º to 110º 4kt 5000m Light Showers Rain 3.00mm precipitation Scattered Clouds 500ft
Broken Clouds 1600ft
1015 No Significant change. Runway 09: Wet or puddles, 51-100% contamination with <1mm, friction coefficient 0.45. USCC 292000Z 08002MPS 040V110 5000 -SHRA SCT005 BKN016CB 06/05 Q1015 R09/290045 NOSIG RMK QFE740
MVFR 6°C / 5°C 70º 4kt 5000m Light Showers Rain 3.00mm precipitation Broken Clouds 1000ft 1015 No Significant change. Runway 09: Wet or puddles, 51-100% contamination with <1mm, friction coefficient 0.45. USCC 291930Z 07002MPS 5000 -SHRA BKN010CB 06/05 Q1015 R09/290045 NOSIG RMK QFE740
MVFR 6°C / 4°C 50º 8kt 9700m Light Showers Rain 3.00mm precipitation Broken Clouds 2000ft 1015 No Significant change. Runway 09: Damp, 51-100% contamination with <1mm, friction coefficient 0.50. USCC 291900Z 05004MPS 9999 -SHRA BKN020CB 06/04 Q1015 R09/190050 NOSIG RMK QFE741
MVFR 6°C / 4°C 40º 8kt 9700m Light Showers Rain 3.00mm precipitation Broken Clouds 3000ft 1015 No Significant change USCC 291830Z 04004MPS 9999 -SHRA BKN030CB 06/04 Q1015 R09/000060 NOSIG RMK QFE741
MVFR 7°C / 4°C 80º 6kt 9700m Light Showers Rain 3.00mm precipitation Broken Clouds 3000ft 1014 No Significant change USCC 291800Z 08003MPS 9999 -SHRA BKN030CB 07/04 Q1014 R09/000060 NOSIG RMK QFE740
MVFR 7°C / 3°C 60º 8kt 9700m - Broken Clouds 3000ft 1015 No Significant change USCC 291730Z 06004MPS 9999 BKN030CB 07/03 Q1015 R09/000060 NOSIG RMK QFE740
MVFR 7°C / 3°C 30º 8kt 9700m - Broken Clouds 3000ft 1015 No Significant change USCC 291700Z 03004MPS 9999 BKN030CB 07/03 Q1015 R09/000060 NOSIG RMK QFE741
MVFR 8°C / 2°C 30º 10kt 9700m - Broken Clouds 3000ft 1015 No Significant change USCC 291630Z 03005MPS 9999 BKN030CB 08/02 Q1015 R09/000060 NOSIG RMK QFE740
MVFR 9°C / 1°C 20º 10kt 9700m - Broken Clouds 3000ft 1015 No Significant change USCC 291600Z 02005MPS 9999 BKN030CB 09/01 Q1015 R09/000060 NOSIG RMK QFE740
MVFR 9°C / 1°C 50º 12kt 9700m - Broken Clouds 3000ft 1014 No Significant change USCC 291530Z 05006MPS 9999 BKN030CB 09/01 Q1014 R09/000060 NOSIG RMK QFE740
MVFR 11°C / 7°C 70º 4kt 9700m - Broken Clouds 3000ft 1014 No Significant change USCC 291500Z 07002MPS 9999 BKN030CB 11/07 Q1014 R09/000060 NOSIG RMK QFE740
MVFR 11°C / 7°C 60º 4kt 9700m - Broken Clouds 3000ft 1015 No Significant change USCC 291430Z 06002MPS 9999 BKN030CB 11/07 Q1015 R09/000060 NOSIG RMK QFE740
MVFR 11°C / 7°C 90º 6kt 9700m - Broken Clouds 3000ft 1014 No Significant change USCC 291400Z 09003MPS 9999 BKN030CB 11/07 Q1014 R09/000060 NOSIG RMK QFE740
MVFR 11°C / 7°C 90º 6kt 9700m - Broken Clouds 3000ft 1014 No Significant change USCC 291330Z 09003MPS 9999 BKN030CB 11/07 Q1014 R09/000060 NOSIG RMK QFE740

IFR

5°C / 5°C

[More]
Wind 30º 6kt
Visibility 2300m
Weather Mist
Clouds Broken Clouds 500ft
Pressure 1016
Change No Significant change. Runway 09: Wet or puddles, 51-100% contamination with <1mm, friction coefficient 0.45.
Raw USCC 300100Z 03003MPS 2300 BR BKN005CB 05/05 Q1016 R09/290045 NOSIG RMK QFE741

IFR

5°C / 5°C

[More]
Wind 30º 6kt
Visibility 4200m
Weather Mist
Clouds Broken Clouds 700ft
Pressure 1016
Change No Significant change. Runway 09: Wet or puddles, 51-100% contamination with <1mm, friction coefficient 0.45.
Raw USCC 300030Z 03003MPS 4200 BR BKN007CB 05/05 Q1016 R09/290045 NOSIG RMK QFE741

IFR

5°C / 5°C

[More]
Wind 40º 6kt
Visibility 9700m
Weather -
Clouds Broken Clouds 700ft
Pressure 1015
Change No Significant change. Runway 09: Wet or puddles, 51-100% contamination with <1mm, friction coefficient 0.45.
Raw USCC 300000Z 04003MPS 9999 BKN007CB 05/05 Q1015 R09/290045 NOSIG RMK QFE741

MVFR

5°C / 5°C

[More]
Wind 50º 6kt
Visibility 9700m
Weather Light Showers Rain 3.00mm precipitation
Clouds Scattered Clouds 500ft
Broken Clouds 1700ft
Pressure 1015
Change No Significant change. Runway 09: Wet or puddles, 51-100% contamination with <1mm, friction coefficient 0.45.
Raw USCC 292330Z 05003MPS 9999 -SHRA SCT005 BKN017CB 05/05 Q1015 R09/290045 NOSIG RMK QFE741

MVFR

5°C / 5°C

[More]
Wind 70º 6kt
Visibility 5000m
Weather Light Showers Rain Mist 3.00mm precipitation
Clouds Scattered Clouds 400ft
Broken Clouds 1700ft
Pressure 1015
Change No Significant change. Runway 09: Wet or puddles, 51-100% contamination with <1mm, friction coefficient 0.45.
Raw USCC 292300Z 07003MPS 5000 -SHRA BR SCT004 BKN017CB 05/05 Q1015 R09/290045 NOSIG RMK QBB120 QFE740

IFR

5°C / 5°C

[More]
Wind 50º 8kt
Visibility 4400m
Weather Light Showers Rain Mist 3.00mm precipitation
Clouds Scattered Clouds 400ft
Broken Clouds 1700ft
Pressure 1015
Change No Significant change. Runway 09: Wet or puddles, 51-100% contamination with <1mm, friction coefficient 0.45.
Raw USCC 292230Z 05004MPS 4400 -SHRA BR SCT004 BKN017CB 05/05 Q1015 R09/290045 NOSIG RMK QBB120 QFE740

IFR

5°C / 5°C

[More]
Wind 70º 6kt
Visibility 3100m
Weather Light Showers Rain Mist 3.00mm precipitation
Clouds Scattered Clouds 300ft
Broken Clouds 1600ft
Pressure 1014
Change No Significant change. Runway 09: Wet or puddles, 51-100% contamination with <1mm, friction coefficient 0.45.
Raw USCC 292200Z 07003MPS 3100 -SHRA BR SCT003 BKN016CB 05/05 Q1014 R09/290045 NOSIG RMK QBB090 QFE740

IFR

5°C / 5°C

[More]
Wind 60º 6kt
Visibility 3800m
Weather Light Showers Rain Mist 3.00mm precipitation
Clouds Scattered Clouds 400ft
Broken Clouds 1600ft
Pressure 1014
Change No Significant change. Runway 09: Wet or puddles, 51-100% contamination with <1mm, friction coefficient 0.45.
Raw USCC 292130Z 06003MPS 3800 -SHRA BR SCT004 BKN016CB 05/05 Q1014 R09/290045 NOSIG RMK QBB120 QFE740

MVFR

5°C / 5°C

[More]
Wind 60º 6kt
Visibility 5000m
Weather Light Showers Rain 3.00mm precipitation
Clouds Scattered Clouds 300ft
Broken Clouds 1600ft
Pressure 1015
Change No Significant change. Runway 09: Wet or puddles, 51-100% contamination with <1mm, friction coefficient 0.45.
Raw USCC 292100Z 06003MPS 5000 -SHRA SCT003 BKN016CB 05/05 Q1015 R09/290045 NOSIG RMK QBB090 QFE740

MVFR

5°C / 5°C

[More]
Wind 50º 6kt
Visibility 5000m
Weather Light Showers Rain 3.00mm precipitation
Clouds Scattered Clouds 400ft
Broken Clouds 1600ft
Pressure 1015
Change No Significant change. Runway 09: Wet or puddles, 51-100% contamination with <1mm, friction coefficient 0.45.
Raw USCC 292030Z 05003MPS 5000 -SHRA SCT004 BKN016CB 05/05 Q1015 R09/290045 NOSIG RMK QBB120 QFE740

MVFR

6°C / 5°C

[More]
Wind 80º variable 040º to 110º 4kt
Visibility 5000m
Weather Light Showers Rain 3.00mm precipitation
Clouds Scattered Clouds 500ft
Broken Clouds 1600ft
Pressure 1015
Change No Significant change. Runway 09: Wet or puddles, 51-100% contamination with <1mm, friction coefficient 0.45.
Raw USCC 292000Z 08002MPS 040V110 5000 -SHRA SCT005 BKN016CB 06/05 Q1015 R09/290045 NOSIG RMK QFE740

MVFR

6°C / 5°C

[More]
Wind 70º 4kt
Visibility 5000m
Weather Light Showers Rain 3.00mm precipitation
Clouds Broken Clouds 1000ft
Pressure 1015
Change No Significant change. Runway 09: Wet or puddles, 51-100% contamination with <1mm, friction coefficient 0.45.
Raw USCC 291930Z 07002MPS 5000 -SHRA BKN010CB 06/05 Q1015 R09/290045 NOSIG RMK QFE740

MVFR

6°C / 4°C

[More]
Wind 50º 8kt
Visibility 9700m
Weather Light Showers Rain 3.00mm precipitation
Clouds Broken Clouds 2000ft
Pressure 1015
Change No Significant change. Runway 09: Damp, 51-100% contamination with <1mm, friction coefficient 0.50.
Raw USCC 291900Z 05004MPS 9999 -SHRA BKN020CB 06/04 Q1015 R09/190050 NOSIG RMK QFE741

MVFR

6°C / 4°C

[More]
Wind 40º 8kt
Visibility 9700m
Weather Light Showers Rain 3.00mm precipitation
Clouds Broken Clouds 3000ft
Pressure 1015
Change No Significant change
Raw USCC 291830Z 04004MPS 9999 -SHRA BKN030CB 06/04 Q1015 R09/000060 NOSIG RMK QFE741

MVFR

7°C / 4°C

[More]
Wind 80º 6kt
Visibility 9700m
Weather Light Showers Rain 3.00mm precipitation
Clouds Broken Clouds 3000ft
Pressure 1014
Change No Significant change
Raw USCC 291800Z 08003MPS 9999 -SHRA BKN030CB 07/04 Q1014 R09/000060 NOSIG RMK QFE740

MVFR

7°C / 3°C

[More]
Wind 60º 8kt
Visibility 9700m
Weather -
Clouds Broken Clouds 3000ft
Pressure 1015
Change No Significant change
Raw USCC 291730Z 06004MPS 9999 BKN030CB 07/03 Q1015 R09/000060 NOSIG RMK QFE740

MVFR

7°C / 3°C

[More]
Wind 30º 8kt
Visibility 9700m
Weather -
Clouds Broken Clouds 3000ft
Pressure 1015
Change No Significant change
Raw USCC 291700Z 03004MPS 9999 BKN030CB 07/03 Q1015 R09/000060 NOSIG RMK QFE741

MVFR

8°C / 2°C

[More]
Wind 30º 10kt
Visibility 9700m
Weather -
Clouds Broken Clouds 3000ft
Pressure 1015
Change No Significant change
Raw USCC 291630Z 03005MPS 9999 BKN030CB 08/02 Q1015 R09/000060 NOSIG RMK QFE740

MVFR

9°C / 1°C

[More]
Wind 20º 10kt
Visibility 9700m
Weather -
Clouds Broken Clouds 3000ft
Pressure 1015
Change No Significant change
Raw USCC 291600Z 02005MPS 9999 BKN030CB 09/01 Q1015 R09/000060 NOSIG RMK QFE740

MVFR

9°C / 1°C

[More]
Wind 50º 12kt
Visibility 9700m
Weather -
Clouds Broken Clouds 3000ft
Pressure 1014
Change No Significant change
Raw USCC 291530Z 05006MPS 9999 BKN030CB 09/01 Q1014 R09/000060 NOSIG RMK QFE740

MVFR

11°C / 7°C

[More]
Wind 70º 4kt
Visibility 9700m
Weather -
Clouds Broken Clouds 3000ft
Pressure 1014
Change No Significant change
Raw USCC 291500Z 07002MPS 9999 BKN030CB 11/07 Q1014 R09/000060 NOSIG RMK QFE740

MVFR

11°C / 7°C

[More]
Wind 60º 4kt
Visibility 9700m
Weather -
Clouds Broken Clouds 3000ft
Pressure 1015
Change No Significant change
Raw USCC 291430Z 06002MPS 9999 BKN030CB 11/07 Q1015 R09/000060 NOSIG RMK QFE740

MVFR

11°C / 7°C

[More]
Wind 90º 6kt
Visibility 9700m
Weather -
Clouds Broken Clouds 3000ft
Pressure 1014
Change No Significant change
Raw USCC 291400Z 09003MPS 9999 BKN030CB 11/07 Q1014 R09/000060 NOSIG RMK QFE740

MVFR

11°C / 7°C

[More]
Wind 90º 6kt
Visibility 9700m
Weather -
Clouds Broken Clouds 3000ft
Pressure 1014
Change No Significant change
Raw USCC 291330Z 09003MPS 9999 BKN030CB 11/07 Q1014 R09/000060 NOSIG RMK QFE740

TAF for 55.31°N 61.5°E (USCC)

From till


From till Wind 40º 6kt. Gust 23kt. Visibility 6000m. Light Rain . Scattered Clouds 500ft. Broken Clouds 1100ft.
Temporarly from till Visibility 305.775m. Fog . Obscured Sky.
Becoming from till

Raw: TAF USCC 292255Z 3000/3024 04003G12MPS 6000 -RA SCT005 BKN011 TEMPO 3000/3005 0300 FG VV002 BECMG 3005/3008 9999 NSW BKN016CB

Radar for 55.31°N 61.5°E

Drizzle
Light
Moderate
Heavy
Very Heavy
Hail

The location marker is placed on 55.31°N 61.5°E. Orange crosses indicate lightning. Data provided by nowcast.de (available in USA, Europe, Australia). Drizzle or light snow fall might be invisible for the radar. Precipitation intensity is colour coded, ranging from turquoise to red.

Current satellite and rain images for 55.31°N 61.5°E

The location marker is placed on 55.31°N 61.5°E. [More]

The real-time satellite image combines visible light during daytime with infrared radiation during nighttime. At night, the image is not dark as infrared radiation can detect temperature differences. Unfortunately, low clouds and fog are difficult to distinguish from ground temperatures and thus can be almost invisible during the night. Meteosat satellite images for Europe are updated in real-time every 5 minutes. GOES-16/GOES-17 (North & South America) and Himawari (Asia) images update every 10 minutes.

Precipitation is estimated from radar and satellites. Precipitation estimates from satellites are less accurate at night than during daytime.

© 2024 meteoblue, NOAA Satellites GOES-16 and EUMETSAT. Lightning data provided by nowcast.

Back to top
×
Hey there,
seems like you are using an ad blocker.

Advertising is essential to maintain our free website with unique detail and accuracy.

Please whitelist www.meteoblue.com on your ad blocker or consider buying one of our products:

Already have a subscription?
Then please login.